Regional Weather Roundup
Issued by NWS

Home | Current Version | Previous Version | Graphics & Text | Print | Product List | Glossary On
Versions: 1 2 3 4 5 6 7 8 9 10 11 12 13 14 15 16 17 18 19 20 21 22 23 24 25 26 27 28 29 30 31 32 33 34 35 36 37 38 39 40 41 42 43 44 45 46 47 48 49 50
000
ASUS43 KLSX 191357
RWRMO

WEATHER SUMMARY FOR MISSOURI
NATIONAL WEATHER SERVICE SPRINGFIELD MO
800 AM CST MON FEB 19 2018

NOTE: "FAIR" INDICATES FEW OR NO CLOUDS BELOW 12,000 FEET WITH NO
       SIGNIFICANT WEATHER AND/OR OBSTRUCTIONS TO VISIBILITY.
       CURRENT SKY AND/OR WEATHER CONDITIONS ARE NOT AVAILABLE FOR
       CHILLICOTHE AND FARMINGTON.

MOZ001>031-035>038-043-044-053-054-191500-
...NORTHERN AND WESTERN MISSOURI...

CITY           SKY/WX    TMP DP  RH WIND       PRES   REMARKS
KANSAS CTY INT CLOUDY    64  59  83 S17G29    29.64R
LEE`S SUMMIT   CLOUDY    63  61  93 S20G26    29.67R
ST JOSEPH      CLOUDY    56  55  97 W21G36    29.61R
CHILLICOTHE      N/A     58  57  97 S6        29.67R
KIRKSVILLE     LGT RAIN  48  48 100 SE8       29.71R FOG

$$
MOZ066>068-077>081-088>096-101>105-191500-
...SOUTHWEST MISSOURI...

CITY           SKY/WX    TMP DP  RH WIND       PRES   REMARKS
SPRINGFIELD    CLOUDY    58  56  93 S13       29.85R
JOPLIN         LGT RAIN  61  60  97 S22G32    29.77R
BRANSON        CLOUDY    61  55  82 S14G28    29.89R

$$
MOZ032>034-039>042-045>050-055>058-069>072-191500-
...CENTRAL MISSOURI...

CITY           SKY/WX    TMP DP  RH WIND       PRES   REMARKS
COLUMBIA       NOT AVBL
JEFFERSON CITY LGT RAIN  61  55  81 S13G26    29.79R
ROLLA          LGT RAIN  57  56  96 S18G30    29.84R
SEDALIA        CLOUDY    63  58  83 S16G29    29.75R
WARRENSBURG    CLOUDY    63  55  77 S18G28    29.69R

$$
MOZ051-052-059>065-191500-
...EAST CENTRAL MISSOURI...

CITY           SKY/WX    TMP DP  RH WIND       PRES   REMARKS
ST LOUIS INTL  TSTM      59  56  89 S14G23    29.88R FOG
ST CHARLES     HVY RAIN  57  55  94 S20       29.85R FOG

$$
MOZ072>076-082>087-097>100-106>115-191500-
...SOUTH CENTRAL AND SOUTHEAST MISSOURI...

CITY           SKY/WX    TMP DP  RH WIND       PRES   REMARKS
CAPE GIRARDEAU LGT RAIN  60  57  89 S16G25    30.02R
POPLAR BLUFF   CLOUDY    59  57  93 S15       30.02R
WEST PLAINS    CLOUDY    57  55  93 S14G23    29.94R

$$



USA.gov is the U.S. government's official web portal to all federal, state and local government web resources and services.